Probability
10 11 13 14 14 13 10 7 5 5 6 6 5 3 1 0 0 0 0 0 0 0 0 0 0 0 0 0 0 0 0 0 0 0 0 0 0 0 0 1 2 2 2
6 8 10 11 11 9 6 5 4 3 3 3 2 1 0 0 0 0 0 0 0 0 0 0 0 0 0 0 0 0 0 0 0 0 0 0 0 0 0 0 1 2 2
3 3 5 7 6 4 3 2 2 2 1 0 0 0 0 0 0 0 0 0 0 0 0 0 0 0 0 0 0 0 0 0 0 0 0 0 0 0 0 0 0 1 1
2 1 2 4 3 3 2 1 0 1 1 0 0 0 0 0 0 0 0 0 0 0 0 0 0 0 0 0 0 0 0 0 0 0 0 0 0 0 0 0 0 0 0
1 0 1 1 1 1 1 0 0 0 0 0 0 0 0 0 0 0 0 0 0 0 0 0 0 0 0 0 0 0 0 0 0 0 0 0 0 0 0 0 0 0 0
0 0 0 0 0 0 0 0 0 0 0 0 0 0 0 0 0 0 0 0 0 0 0 0 0 0 0 0 0 0 0 0 0 0 0 0 0 0 0 0 0 0 0
0 0 0 0 0 0 0 0 0 0 0 0 0 0 0 0 0 0 0 0 0 0 0 0 0 0 0 0 0 0 0 0 0 0 0 0 0 0 0 0 0 0 0
0 0 0 0 0 0 0 0 0 0 0 0 0 0 0 0 0 0 0 0 0 0 0 0 0 0 0 0 0 0 0 0 0 0 0 0 0 0 0 0 0 0 0
0 0 0 0 0 0 0 0 0 0 0 0 0 0 0 0 0 0 0 0 0 0 0 0 0 0 0 0 0 0 0 0 0 0 0 0 0 0 0 0 0 0 0
0 0 0 0 0 0 0 0 0 0 0 0 0 0 0 0 0 0 0 0 0 0 0 0 0 0 0 0 0 0 0 0 0 0 0 0 0 0 0 0 0 0 0
0 0 0 0 0 0 0 0 0 0 0 0 0 0 0 0 0 0 0 0 0 0 0 0 0 0 0 0 0 0 0 0 0 0 0 0 0 0 0 0 0 0 0
0 0 0 0 0 0 0 0 0 0 0 0 0 0 0 0 0 0 0 0 0 0 0 0 0 0 0 0 0 0 0 0 0 0 0 0 0 0 0 0 0 0 0
0 0 0 0 0 0 0 0 0 0 0 0 0 0 0 0 0 0 0 0 0 0 0 0 0 0 0 0 0 0 0 0 0 0 0 0 0 0 0 0 0 0 0
0 0 0 0 0 0 0 0 0 0 0 0 0 0 0 0 0 0 0 0 0 0 0 0 0 0 0 0 0 0 0 0 0 0 0 0 0 0 0 0 0 0 0
0 0 0 0 0 0 0 0 0 0 0 0 0 0 0 0 0 0 0 0 0 0 0 0 0 0 0 0 0 0 0 0 0 0 0 0 0 0 0 0 0 0 0
0 0 0 0 0 0 0 0 0 0 0 0 0 0 0 0 0 0 0 0 0 0 0 0 0 0 0 0 0 0 0 0 0 0 0 0 0 0 0 0 0 0 0
0 0 0 0 0 0 0 0 0 0 0 0 0 0 0 0 0 0 0 0 0 0 0 0 0 0 0 0 0 0 0 0 0 0 0 0 0 0 0 0 0 0 0
0 0 0 0 0 0 0 0 0 0 0 0 0 0 0 0 0 0 0 0 0 0 0 0 0 0 0 0 0 0 0 0 0 0 0 0 0 0 0 0 0 0 0
0 0 0 0 0 0 0 0 0 0 0 0 0 0 0 0 0 0 0 0 0 0 0 0 0 0 0 0 0 0 0 0 0 0 0 0 0 0 0 0 0 0 0
0 0 0 0 0 0 0 0 0 0 0 0 0 0 0 0 0 0 0 0 0 0 0 0 0 0 0 0 0 0 0 0 0 0 0 0 0 0 0 0 0 0 0
0 0 0 0 0 0 0 0 0 0 0 0 0 0 0 0 0 0 0 0 0 0 0 0 0 0 0 0 0 0 0 0 0 0 0 0 0 0 0 0 0 0 0
0 0 0 0 0 0 0 0 0 0 0 0 0 0 0 0 0 0 0 0 0 0 0 0 0 0 0 0 0 0 0 0 0 0 0 0 0 0 0 0 0 0 0
0 0 0 0 0 0 0 0 0 0 0 0 0 0 0 0 0 0 0 0 0 0 0 0 0 0 0 0 0 0 0 0 0 0 0 0 0 0 0 0 0 0 0
0 0 0 0 0 0 0 0 0 0 0 0 0 0 0 0 0 0 0 0 1 1 0 0 0 0 0 0 0 0 0 0 0 0 0 0 0 0 0 0 0 0 0
0 0 0 0 0 0 0 0 0 0 0 0 0 0 0 0 0 0 0 0 1 1 0 0 0 0 0 0 0 0 0 0 0 0 0 0 0 0 0 0 0 0 0
0 0 0 0 0 0 0 0 0 0 0 0 0 0 0 0 0 0 0 0 1 1 0 0 0 0 0 0 0 0 0 0 0 0 0 0 0 0 0 0 0 0 0
Wind_Speed
5 5 6 7 7 6 7 6 6 5 4 3 2 2 2 2 2 1 2 2 1 2 2 1 1 1 1 0 1 1 1 1 0 0 2 3 4 5 5 5 5 6 8
5 5 5 6 6 6 6 6 6 5 4 2 1 1 2 2 2 2 2 1 1 1 2 2 1 1 1 2 1 1 0 1 0 1 0 3 4 3 4 3 4 6 5
9 7 7 6 7 6 5 6 5 5 4 4 3 3 3 3 3 3 2 2 2 1 1 2 2 2 2 1 1 1 1 0 1 0 2 1 2 3 3 2 3 3 3
8 7 7 7 7 6 6 6 6 5 5 5 5 5 3 2 2 1 2 3 4 3 2 3 3 2 2 2 1 1 1 1 1 1 1 2 3 2 4 4 3 3 4
9 8 8 8 7 8 7 6 6 5 5 5 5 5 4 2 1 2 4 4 4 4 4 4 3 3 2 1 1 1 1 1 1 1 1 1 1 2 2 4 4 3 3
8 7 7 7 7 6 6 6 6 5 4 5 5 5 4 3 4 4 3 3 3 3 4 3 3 2 2 1 1 1 1 1 1 1 1 1 1 1 2 3 3 3 4
9 9 9 8 8 8 7 6 7 5 4 5 4 4 4 4 3 2 2 2 2 2 3 3 2 1 1 1 1 1 1 1 1 2 2 2 3 2 2 2 3 3 3
10 10 10 9 9 9 8 7 7 5 4 4 4 3 4 3 2 1 1 1 0 0 1 2 2 2 2 1 1 1 2 2 2 3 2 2 3 2 3 3 2 2 3
11 10 9 9 9 9 8 8 7 5 5 4 4 3 3 3 2 1 1 1 0 1 1 2 2 2 2 2 2 1 3 2 2 3 3 2 3 2 3 3 3 3 3
10 10 9 9 8 8 7 7 7 7 5 5 4 3 3 3 2 2 1 0 1 1 1 2 2 3 3 3 2 2 3 3 3 3 3 3 3 3 3 3 3 3 4
12 10 9 8 8 7 7 7 6 5 4 4 3 3 2 2 2 1 1 1 1 1 2 2 3 3 3 3 2 3 3 3 4 3 3 4 4 3 3 3 2 3 3
11 10 9 8 7 7 6 6 6 5 5 4 4 3 3 2 2 1 1 1 2 2 3 3 3 3 3 3 3 4 4 3 4 4 4 5 4 4 3 3 4 3 4
10 9 8 8 8 7 6 6 6 6 5 5 4 4 3 2 2 2 2 2 2 3 3 3 3 4 4 4 4 3 4 4 4 5 5 5 4 5 4 4 4 4 4
12 10 8 8 8 7 7 6 6 6 6 5 4 4 3 3 3 3 3 3 3 3 3 3 4 4 4 4 3 3 3 4 4 5 5 5 5 6 6 5 5 5 4
12 12 10 8 7 7 6 6 6 5 5 5 4 4 4 3 3 3 3 3 3 4 3 3 4 4 4 4 4 3 4 4 5 5 5 6 8 9 7 5 5 5 4
14 12 11 10 9 8 7 6 6 5 5 5 4 4 3 3 3 3 3 3 3 4 3 4 4 5 4 5 7 5 4 4 5 6 6 7 8 9 10 10 9 8 7
13 13 12 11 10 9 8 8 7 5 5 5 4 4 4 3 3 3 3 3 4 3 4 5 5 5 7 10 10 9 5 5 5 6 6 6 7 7 5 8 9 8 11
13 12 11 10 8 7 7 7 6 6 5 5 4 4 4 4 3 3 4 4 4 4 4 5 6 6 8 10 10 10 6 5 6 6 6 6 7 7 6 6 6 6 6
12 11 11 9 8 9 8 7 6 5 5 5 5 5 5 4 4 4 5 4 4 5 5 5 6 6 8 10 11 9 4 5 7 6 6 6 6 9 9 6 6 7 7
9 9 9 8 8 8 7 7 6 5 6 6 6 5 5 5 5 6 6 4 4 5 5 6 6 6 7 10 10 8 3 5 5 5 6 8 8 9 8 5 5 6 7
9 10 10 9 9 8 8 7 6 6 6 5 5 4 4 5 6 5 4 5 5 5 5 6 6 6 7 8 9 8 4 5 5 5 5 5 9 10 10 7 6 9 8
9 10 9 8 7 8 8 7 7 6 5 5 4 4 5 5 4 5 5 5 4 5 5 5 6 5 5 6 7 8 8 7 5 6 5 6 9 10 10 8 9 11 8
10 9 9 8 6 7 8 8 7 5 5 4 4 5 5 5 5 5 5 4 4 4 5 4 5 6 4 5 8 8 8 8 5 5 9 10 12 11 8 10 12 9 5
9 8 8 8 7 7 7 8 7 6 5 5 5 5 5 5 5 4 4 4 5 5 5 5 5 5 4 4 4 4 4 5 5 4 7 10 11 9 9 8 7 5 5
7 8 8 9 9 8 8 7 6 6 6 6 5 5 5 5 5 5 5 6 7 7 7 6 5 5 6 7 8 5 4 3 3 3 3 3 3 4 4 4 5 4 4
7 7 7 7 7 7 6 6 5 6 6 5 5 4 4 4 4 5 6 8 10 12 13 12 9 7 10 11 9 9 9 8 5 3 4 5 5 5 5 5 5 4 5
Wind_Direction
144 131 123 115 106 95 91 89 84 71 68 60 62 61 49 49 53 67 97 109 120 123 117 101 79 98 117 275 274 220 260 271 210 66 310 293 261 243 239 230 218 216 214
138 134 128 119 113 109 102 96 89 79 72 73 77 94 91 72 73 49 45 53 80 114 135 132 126 111 87 35 21 61 48 314 73 133 42 325 324 301 256 240 227 227 216
158 156 144 134 126 122 123 115 108 94 82 74 62 54 46 37 29 20 5 348 8 34 106 122 123 103 99 77 51 78 111 319 332 130 149 166 269 308 310 280 255 243 227
162 160 153 145 141 140 134 126 115 100 90 84 80 81 81 64 16 353 360 0 13 25 66 87 92 90 90 80 39 84 113 129 311 321 230 202 202 239 307 314 301 276 251
171 168 162 155 150 144 137 129 116 105 99 93 96 90 81 73 32 31 30 23 20 34 48 64 67 67 67 64 39 31 56 138 187 222 267 274 261 206 217 287 309 313 275
168 158 151 145 144 143 139 132 121 116 111 105 101 101 95 76 61 44 33 21 13 20 30 55 56 51 39 22 2 349 346 297 245 228 214 206 225 238 224 255 282 289 282
163 156 153 154 158 158 153 143 133 131 128 120 116 116 113 104 100 89 60 40 19 10 8 32 30 15 346 349 16 360 327 306 290 265 244 225 222 216 212 228 266 282 289
167 167 167 163 164 164 156 149 146 149 148 138 138 132 129 128 137 138 127 103 116 283 336 19 9 348 338 340 341 309 294 292 293 287 277 262 253 225 211 211 226 283 298
172 171 168 164 160 158 159 158 155 157 160 156 150 144 145 147 157 156 127 131 246 242 352 350 341 329 324 320 318 290 290 299 286 279 278 270 263 251 231 214 198 204 251
170 168 166 162 160 160 159 156 157 162 165 161 157 150 159 157 150 131 121 190 269 316 328 321 315 311 310 308 302 285 284 289 284 272 278 278 271 274 259 235 218 201 204
171 169 165 161 156 153 152 154 158 153 156 156 146 134 142 140 130 133 185 215 246 277 286 287 292 296 297 299 291 280 281 281 285 288 283 278 273 271 269 257 238 223 202
166 162 158 154 152 154 156 156 154 151 156 152 141 141 141 138 142 176 227 232 253 269 270 277 286 287 288 288 279 279 287 276 276 279 282 280 283 275 267 258 251 242 222
156 155 155 158 161 160 158 154 154 155 152 143 139 142 150 164 189 218 242 248 255 271 278 279 276 277 279 278 272 265 273 271 267 269 269 270 275 274 268 259 253 248 247
160 160 164 167 166 163 160 155 156 156 150 144 144 159 183 199 213 225 239 248 251 259 270 270 267 266 268 268 267 265 272 277 277 272 267 266 260 258 262 261 252 247 247
166 168 169 170 167 163 162 158 158 159 153 150 157 186 201 204 212 232 250 258 260 259 260 265 272 272 264 252 243 255 262 268 277 280 276 272 271 264 259 260 246 240 236
175 174 171 169 171 170 167 162 165 168 160 162 182 196 198 207 222 239 251 261 267 268 268 266 265 269 265 257 251 247 251 260 266 276 280 282 280 278 277 276 264 237 227
175 175 175 176 176 174 167 169 172 169 167 179 192 197 200 210 225 237 248 262 264 260 267 268 263 263 265 264 263 259 243 249 257 263 272 282 284 287 280 283 284 271 252
175 176 175 174 173 169 166 166 163 167 176 187 199 203 202 213 227 237 252 256 253 253 258 262 263 263 267 265 260 260 249 250 256 257 258 261 273 279 274 274 276 270 267
173 174 174 170 167 169 167 158 166 173 182 198 207 210 205 212 227 242 251 251 251 259 259 260 262 262 270 268 262 254 241 252 263 264 264 259 262 271 276 267 266 271 273
161 163 160 154 163 173 161 158 174 182 199 206 206 205 204 211 226 239 248 247 245 254 265 269 264 260 265 270 265 250 225 250 265 272 270 265 261 271 275 253 250 262 266
159 156 154 162 174 169 158 167 182 202 210 204 199 206 216 225 232 241 246 249 252 263 270 274 275 270 265 273 268 255 221 235 255 266 269 266 271 275 274 260 241 246 254
155 157 160 170 173 166 162 175 199 211 201 193 203 220 232 241 239 237 254 254 251 261 270 273 281 277 272 263 263 260 246 236 237 253 260 264 276 277 276 269 256 257 260
161 161 163 168 175 176 171 184 209 200 191 197 218 235 246 251 249 242 252 260 252 248 258 260 267 274 273 266 259 261 261 254 241 251 260 270 279 281 274 264 262 260 245
164 158 156 166 185 192 191 197 200 190 188 207 228 238 247 260 263 253 244 245 249 248 253 255 258 264 268 263 258 257 264 267 263 270 280 284 280 273 263 267 265 244 228
161 160 167 180 193 195 202 206 198 186 197 216 231 241 244 252 261 258 248 244 240 231 231 241 239 243 259 254 237 230 243 242 252 283 290 285 284 281 275 268 259 248 237
160 166 177 186 195 196 208 213 202 192 199 220 234 238 243 249 252 264 281 268 256 261 251 245 239 240 243 256 256 247 250 255 253 244 262 271 268 265 267 269 267 252 239